Flag for Canada Weather past 2 weeks in New Westminster, British Columbia, Canada

Now
62 °F

Cool.


Feels Like: 62 °F
Forecast: 49 / 80 °F
Wind: 1 mph from Northwest

Location: P. Meadows Coastal Station

Current Time: Sep 14, 2014 at 9:33:16 PM

Latest Report: Sep 14, 2014 at 9:00 PM


Visibility: N/A

Pressure: 29.86 "Hg

Humidity: 66%

Dew point: 50 °F

Location of New WestminsterLocation

Historic Weather in New Westminster — Graph

°F

New Westminster temperature yesterday

Maximum temperature yesterday: 80 °F (at 2:00 PM)
Minimum temperature yesterday: 48 °F (at 7:00 AM)
Average temperature yesterday: 65 °F

Past Weeks' High & Low Weather Summary

 TemperatureHumidityPressure
High86 °F (Sep 6, 4:00 PM)99% (Sep 4, 7:00 AM)30.34 "Hg (Sep 4, 7:00 AM)
Low43 °F (Sep 12, 7:00 AM)17% (Sep 10, 5:00 PM)29.78 "Hg (Sep 7, 8:00 PM)
Average63 °F69%30.02 "Hg
* Reported Aug 30 8:00 PM — Sep 14 8:00 PM, New Westminster, Weather by CustomWeather, © 2014

Note: Actual official high and low records may vary slightly from our data, if they occured in-between our weather recording intervals... More about our weather records

Advertising

New Westminster weather history for previous 24 hours

 ConditionsComfort  
Time TempWeatherWind HumidityBarometerVisibility
8:00 PM
Sep 14
67 °FMild.2 mph52%29.85 "HgN/A
7:00 PM75 °FMild.3 mph36%29.85 "HgN/A
6:00 PM80 °FPleasantly warm.5 mph30%29.86 "HgN/A
5:00 PM82 °FPleasantly warm.6 mph29%29.87 "HgN/A
4:00 PM82 °FPleasantly warm.5 mph27%29.88 "HgN/A
3:00 PM82 °FPleasantly warm.6 mph30%29.89 "HgN/A
2:00 PM79 °FPleasantly warm.2 mph34%29.90 "HgN/A
1:00 PM77 °FMild.3 mph34%29.92 "HgN/A
12:00 PM74 °FMild.1 mph40%29.93 "HgN/A
11:00 AM70 °FMild.1 mph49%29.94 "HgN/A
10:00 AM63 °FMild.1 mph61%29.94 "HgN/A
9:00 AM59 °FCool.1 mph74%29.94 "HgN/A
8:00 AM53 °FCool.No wind90%29.94 "HgN/A
7:00 AM47 °FCool.1 mph95%29.93 "HgN/A
6:00 AM47 °FCool.No wind96%29.92 "HgN/A
5:00 AM49 °FCool.1 mph94%29.92 "HgN/A
4:00 AM50 °FCool.2 mph94%29.91 "HgN/A
3:00 AM51 °FCool.1 mph88%29.90 "HgN/A
2:00 AM52 °FCool.No wind89%29.89 "HgN/A
1:00 AM51 °FCool.1 mph93%29.89 "HgN/A
12:00 AM52 °FCool.2 mph86%29.88 "HgN/A
11:00 PM
Sep 13
55 °FCool.No wind82%29.88 "HgN/A
10:00 PM57 °FCool.1 mph72%29.87 "HgN/A
9:00 PM58 °FCool.No wind72%29.86 "HgN/A
Weather by CustomWeather, © 2014

See weather overviewHow to use our weather pages